Location: Holyhead Bay
(53.3667°N, 4.6667°W)
Time: 00:21:27
(UTC+00:00)

ADEOS Rocket - Pass Details

Date: 19 April 2021
Orbit: 859 x 1306 km, 98.7° (Epoch: 15 May)

Event Time Altitude Azimuth Distance (km) Brightness Sun altitude
Rises 23:43:04 0° 81° (E) 3,928 6.2 -24.7°
Reaches altitude 10° 23:47:17 10° 55° (NE) 3,071 5.9 -24.8°
Maximum altitude 23:50:06 13° 31° (NNE) 2,919 6.1 -24.8°
Drops below altitude 10° 23:52:59 10° 8° (N) 3,190 6.7 -24.9°
Sets 23:57:33 0° 343° (NNW) 4,233 7.6 -25.0°
